{"data":{"norad_id":55034,"epoch":"2026-05-25T03:21:16.553088Z","epoch_age_seconds":66894,"freshness":"FRESH","line1":"1 55034U 23001AB  26145.13977492  .00007115  00000+0  22558-3 0  9991","line2":"2 55034  97.3214 204.2852 0008064 189.0795 171.0303 15.32982376188294","mean_motion":15.32982376,"eccentricity":0.0008064,"inclination_deg":97.3214,"raan_deg":204.2852,"arg_perigee_deg":189.0795,"mean_anomaly_deg":171.0303,"bstar":0.00022558,"rev_number":18829,"period_min":93.934543706718,"perigee_km":461.40011022399,"apogee_km":472.43981809579,"semimajor_km":6845.0569641599,"source":"CELESTRAK","updated_at":"2026-05-25T13:37:58.810266Z"}}